Location: Turtle Rock Observatory
(36.6913°N, 81.9708°W)
Time: 14:10:43
(UTC-04:00)

Daily predictions for brighter satellites

Satellite Brightness Start Highest point End
(mag) Time Altitude Azimuth Time Altitude Azimuth Time Altitude Azimuth
Meteor 2-4 Rocket 4.0 20:57:44 10° SSE 21:03:23 53° E 21:09:07 10° NNE
Cosmos 2333 Rocket 4.0 20:58:53 10° SW 21:04:05 38° WNW 21:09:21 10° N
Cosmos 2297 3.8 21:01:23 10° NNW 21:07:06 69° ENE 21:12:47 10° SSE
FENGYUN 3A 3.7 21:01:51 10° SSE 21:07:11 71° ENE 21:12:33 10° N
Cosmos 2228 4.1 21:03:28 10° NNE 21:07:17 28° ENE 21:11:05 10° SE
Cosmos 1025 Rocket 3.3 21:03:10 10° S 21:07:33 78° W 21:11:57 10° N
Meteor 1-19 Rocket 4.2 21:04:07 10° S 21:09:44 84° E 21:15:21 10° N
Resurs 01 Rocket 4.1 21:10:49 10° SW 21:14:16 22° W 21:17:43 10° NW
H-2A R/B 2.8 21:13:52 10° SSE 21:17:48 89° WSW 21:21:47 10° NNW
Okean 2 3.4 21:14:57 10° S 21:19:06 64° E 21:23:14 10° NNE
Cosmos 1892 Rocket 3.7 21:15:31 10° S 21:19:56 84° W 21:24:27 10° N
GEOS 3 Rocket 3.7 21:15:01 10° SE 21:20:16 78° NE 21:25:31 10° NNW
Aureole 2 Rocket 2.6 21:20:38 10° SSW 21:24:38 76° ESE 21:28:16 10° NNE
Cosmos 1331 Rocket 4.0 21:22:07 10° NNW 21:27:20 88° WSW 21:32:30 10° SSE
SeaSat 1 3.8 21:24:32 10° ESE 21:28:35 26° NE 21:32:38 10° N
OAO 3 Copernicus 4.5 21:24:06 10° W 21:29:05 62° SSW 21:33:34 13° ESE
USA 186 3.2 21:33:53 10° SSW 21:36:32 32° W 21:39:01 10° NNW
Cosmos 1302 Rocket 4.1 21:33:04 10° NNW 21:38:17 67° ENE 21:42:58 13° SSE
CZ-2C R/B 0.7 21:36:18 11° S 21:38:26 66° W 21:40:43 10° NNW
DEBRIS 3.2 21:38:53 10° NW 21:44:09 48° NNE 21:45:47 18° E
Cosmos 2278 Rocket 4.1 21:41:03 10° NW 21:45:43 27° WSW 21:50:21 10° SSW
Cosmos 1461 3.1 21:42:54 10° NNW 21:47:07 55° ENE 21:49:44 20° SE
Cosmos 1513 Rocket 4.5 21:41:56 10° N 21:48:14 76° E 21:54:22 10° S
ATLAS 3B R/B 3.6 21:42:14 10° S 21:48:51 33° ESE 21:55:25 10° NE
SJ-11-01 4.3 21:44:33 10° SSE 21:49:13 84° WSW 21:53:55 10° NNW
Tsikada Rocket 4.1 21:44:33 10° S 21:50:52 63° E 21:57:10 10° NNE
Cosmos 2369 Rocket 3.6 21:54:06 10° N 21:58:38 24° ENE 22:01:39 16° E
Cosmos 2058 Rocket 4.3 21:57:22 10° NNW 22:01:28 40° W 22:05:32 10° SSW
ERS-1 Rocket 3.5 21:57:33 10° S 22:02:28 56° W 22:07:23 10° NNW
Cosmos 1666 3.2 21:58:45 10° NNW 22:02:36 60° W 22:05:58 13° S
Cosmos 1602 Rocket 3.7 21:58:11 10° S 22:02:39 80° W 22:07:08 10° N
APEX 4.1 21:58:40 10° NNW 22:02:58 67° WSW 22:07:16 17° S
SL-16 R/B 4.2 21:59:06 10° WSW 22:04:02 30° WNW 22:09:00 10° N
Abrixas rocket 2.5 22:01:33 10° WNW 22:04:56 59° SW 22:06:15 33° SSE
Atlas Centaur 2 3.2 21:58:43 10° WSW 22:05:51 51° S 22:12:42 15° E
USA 234 4.0 22:01:10 14° E 22:06:25 43° NE 22:12:32 10° NNW
Cosmos 1825 Rocket 4.3 22:05:59 26° SE 22:07:29 33° E 22:11:30 10° NNE
Envisat 2.9 22:05:32 19° SSE 22:09:16 85° ENE 22:14:22 10° NNW
MetOp-B 4.3 22:06:59 23° SE 22:10:13 57° ENE 22:15:27 10° N
Cosmos 407 Rocket 4.4 22:11:19 26° SE 22:12:39 29° E 22:17:07 10° NE
ISS -2.8 22:11:49 10° WSW 22:15:02 62° NW 22:18:17 10° NE
Cosmos 1812 Rocket 3.5 22:11:30 10° N 22:15:54 78° E 22:18:12 28° SSE
Cosmos 1939 Rocket 3.6 22:16:38 17° S 22:19:40 51° W 22:23:44 10° NNW
PSLV R/B 4.2 22:16:35 10° W 22:20:02 51° NNW 22:22:59 14° ENE
CZ-4 R/B 4.2 22:17:33 10° NNE 22:22:22 47° E 22:24:19 31° SSE
H-2A R/B 3.6 22:22:24 10° SSW 22:26:06 31° W 22:29:58 10° NW
SPOT 5 2.8 22:24:58 26° S 22:27:24 69° WSW 22:31:45 10° NNW
COSMOS 2455 3.1 22:23:46 10° SSW 22:29:44 71° WNW 22:35:46 10° NNE
Cosmos 1515 3.6 22:28:51 33° S 22:30:31 86° W 22:34:23 10° N
USA 245 4.3 22:28:23 30° SSE 22:31:25 67° ENE 22:36:41 10° N
Cosmos 1634 Rocket 4.1 22:25:53 10° N 22:31:58 57° E 22:34:40 33° SE
CZ-4 SHROUD 4.4 22:31:44 28° SW 22:32:47 38° W 22:35:46 10° NNW
Cosmos 1066 Rocket 4.2 22:30:02 27° S 22:33:09 66° E 22:38:53 10° NNE
USA 81 4.0 22:30:28 10° N 22:35:44 65° E 22:37:42 38° SSE
BREEZE-M DEB (TANK) 3.6 22:34:04 10° WNW 22:35:27 23° WSW 22:35:27 23° WSW
YAOGAN 6 2.5 22:39:45 61° SSE 22:40:21 89° ENE 22:44:07 10° N
Terra 3.0 22:43:54 26° E 22:44:32 27° ENE 22:48:31 10° NNE
Cosmos 489 Rocket 4.5 22:42:05 29° S 22:45:20 62° ESE 22:51:36 10° NNE
Cosmos 1992 Rocket 3.9 22:43:40 10° NNW 22:48:55 89° ENE 22:50:30 46° SSE
Cosmos 1346 Rocket 2.6 22:48:52 72° ESE 22:48:59 73° E 22:52:54 10° NNE
Cosmos 1953 Rocket 3.4 22:52:36 58° S 22:53:27 84° E 22:57:53 10° N
Cosmos 2279 Rocket 4.3 22:49:15 10° N 22:55:20 51° E 22:56:57 41° ESE
Cosmos 1943 3.4 22:50:41 10° SSW 22:56:19 72° WNW 23:02:02 10° NNE
H-2A R/B 2.5 22:57:40 39° E 22:58:18 41° ENE 23:03:01 10° N
Cosmos 1842 4.3 23:04:02 35° NE 23:04:02 35° NE 23:06:42 10° NNE
Lacrosse 4 Rocket 1.3 23:03:02 67° WSW 23:03:28 78° WNW 23:07:34 10° NNE
Cosmos 1943 Rocket 3.2 22:58:49 10° N 23:03:42 31° ENE 23:04:49 29° E
Geosat 3.9 22:59:48 10° NNE 23:04:52 86° ESE 23:06:36 42° SSW
Meteor 1-21 4.2 23:03:33 49° SSE 23:05:06 73° E 23:10:55 10° NNE
SeaSat 1 3.4 23:04:20 30° SSW 23:05:54 38° WSW 23:10:30 10° NW
Cosmos 1190 Rocket 4.3 23:03:10 23° SSW 23:06:29 66° WNW 23:11:48 10° NNE
SPOT 1/Viking Rocket 3.9 23:05:20 39° SSW 23:07:01 57° W 23:12:06 10° NNW
Cosmos 1900 4.3 23:07:02 39° SSW 23:09:00 88° WNW 23:14:11 10° NNE
Cosmos-2242 3.8 23:07:59 10° N 23:11:38 39° ENE 23:11:38 39° ENE
Cosmos 676 Rocket 4.0 23:21:48 52° SSW 23:23:05 79° WNW 23:28:27 10° NNE
DELTA 2 DEB (DPAF) 4.3 23:22:59 62° WSW 23:23:09 63° WSW 23:27:37 10° NNW
DMSP B5D2-2 3.9 23:20:39 10° NNE 23:25:57 76° ESE 23:26:13 74° SE
Cosmos 1766 3.8 23:23:08 10° N 23:26:30 59° NNW 23:26:30 59° NNW
Cosmos 1758 Rocket 4.3 23:27:03 44° WSW 23:27:38 47° W 23:31:52 10° N
Cosmos 1140 Rocket 3.9 23:28:55 49° ENE 23:28:55 49° ENE 23:33:16 10° NNE
CARTOSAT-1 3.7 23:31:25 70° NNW 23:31:25 70° NNW 23:35:16 10° NNW
ARGOS 4.0 23:33:16 35° SW 23:34:35 41° W 23:39:41 10° NNW
ATLAS 3B R/B 3.6 23:31:50 10° SW 23:39:20 53° NW 23:46:42 10° NNE
Cosmos 2369 Rocket 2.8 23:37:29 10° NW 23:42:50 44° WSW 23:43:27 43° SW
USA 234 3.4 23:48:30 51° SSW 23:49:15 54° SW 23:55:41 10° NW
ISS 0.3 23:50:50 10° NW 23:52:02 12° NNW 23:53:14 10° N
